STMSAT-1

Last updated on April 22, 2017, 12:15 a.m. UTC

1 41476U 98067HW  17110.92644424  .05491109  12138-4  11894-2 0  9990
2 41476  51.6168 282.7472 0011810 288.2314  71.7422 16.29591596 53242

Satellite is not in orbit.